Location: Cloonfad
(53.2953°N, 8.1083°W)
Time: 11:20:21
(UTC+00:00)

Daily predictions for brighter satellites

Satellite Brightness Start Highest point End
(mag) Time Altitude Azimuth Time Altitude Azimuth Time Altitude Azimuth
MOS 1 4.4 20:13:27 10° SSE 20:19:04 71° ENE 20:24:43 10° NNW
USA 234 4.1 20:14:53 10° ENE 20:20:20 27° SE 20:25:46 10° S
Meteor 1-11 4.3 20:14:54 10° NNW 20:20:27 87° WSW 20:25:57 10° S
Cosmos 405 Rocket 4.2 20:20:26 10° NNE 20:22:07 14° ENE 20:23:47 10° E
NOSS 3-1 (A) 4.4 20:18:16 10° NW 20:24:26 50° NNE 20:32:14 10° ESE
Cosmos 2278 Rocket 4.0 20:21:04 10° NW 20:25:58 31° WSW 20:30:50 10° SSW
USA 32 4.0 20:23:50 10° S 20:29:02 80° E 20:34:18 10° N
CZ-4B R/B 4.4 20:28:08 10° E 20:30:21 16° ENE 20:32:33 10° NNE
CZ-4B DEB 4.3 20:25:30 10° SSE 20:30:59 85° WSW 20:36:33 10° NNW
CZ-4B R/B 3.3 20:25:55 10° SSE 20:31:31 75° ENE 20:37:12 10° NNW
SL-8 Rocket 4.5 20:30:01 10° SSW 20:36:16 69° WNW 20:42:36 10° N
SL-24 R/B 4.4 20:32:22 10° NNE 20:37:09 53° E 20:41:22 10° S
Cosmos 1125 Rocket 3.5 20:32:17 10° SSW 20:37:32 83° ESE 20:42:51 10° NNE
Cosmos 1674 Rocket 3.5 20:34:52 10° N 20:39:13 85° E 20:43:35 10° SSE
Cosmos 2263 4.5 20:34:11 10° NNW 20:39:45 58° NE 20:45:14 11° SE
ERS-1 Rocket 3.0 20:36:13 10° SSE 20:41:13 86° WSW 20:46:17 10° NNW
Cosmos 2292 Rocket 3.3 20:38:25 10° N 20:42:57 72° ENE 20:46:31 10° SSE
COSMOS 2428 4.3 20:40:05 10° WSW 20:45:28 41° NW 20:50:54 10° NNE
CZ-2C R/B 4.3 20:44:50 10° E 20:46:14 13° ENE 20:47:39 10° NNE
Okean-O 2.9 20:44:42 10° SE 20:48:57 54° ENE 20:53:14 10° N
Cosmos 44 3.7 20:45:48 10° SSW 20:50:39 46° ESE 20:55:45 10° NE
Cosmos 1378 Rocket 4.3 20:46:58 10° NNW 20:51:15 53° W 20:55:27 10° S
Cosmos 1908 Rocket 3.9 20:47:36 10° SSE 20:51:43 45° E 20:55:50 10° NNE
MetOp-B 4.4 20:50:48 10° S 20:56:10 75° WSW 21:01:33 10° NNW
ATLAS 3B R/B 4.3 20:49:14 10° WNW 20:56:32 39° N 21:03:44 10° ENE
Cosmos 1727 Rocket 4.3 20:50:18 10° NNW 20:56:39 75° W 21:02:55 10° S
Okean O Rocket 1.6 20:53:07 10° SSE 20:57:24 66° ENE 21:01:42 10° N
Cosmos 2084 Rocket 4.3 20:54:16 10° WSW 20:58:15 51° NNW 21:02:19 10° NE
IRS-1A Rocket 4.3 20:52:43 10° SSE 20:58:23 90° ENE 21:04:12 10° NNW
CZ-4B R/B 4.1 20:55:25 13° SE 20:59:12 37° ENE 21:03:33 10° N
SL-16 R/B 2.3 20:54:56 10° S 21:00:25 54° ESE 21:05:57 10° NE
CZ-4 R/B 2.9 20:57:06 10° SSW 21:00:28 32° W 21:03:50 10° NNW
Ariane Rocket 3.8 20:57:13 13° ESE 21:01:08 35° ENE 21:05:41 10° N
Cosmos 1782 Rocket 4.4 20:58:39 12° SSE 21:02:00 31° E 21:05:49 10° NNE
Cosmos 1934 Rocket 4.2 20:57:02 10° SSE 21:03:02 52° E 21:09:00 10° NNE
Helios 1A Rocket 3.0 21:01:09 10° N 21:04:20 56° WNW 21:07:28 10° SSW
Cosmos 1269 Rocket 4.3 21:01:01 10° NNW 21:06:13 54° ENE 21:10:20 16° SE
ATLAS 5 CENTAUR R/B 2.6 21:03:42 10° NW 21:07:06 32° NNE 21:11:03 11° E
Cosmos 1025 Rocket 3.5 21:03:38 10° NNW 21:07:49 59° W 21:12:02 10° S
Spot 2 Rocket 3.5 21:03:24 10° SSE 21:08:25 84° ENE 21:13:29 10° NNW
Cosmos 1140 Rocket 3.7 21:03:43 10° NNW 21:08:49 59° ENE 21:12:46 17° SE
USA 245 4.4 21:05:18 14° SE 21:09:24 55° ENE 21:14:56 10° N
MOS 1-B 4.4 21:06:51 10° SSE 21:12:39 88° ENE 21:18:29 10° NNW
NOSS 3-1 (C) 4.0 21:09:10 10° NW 21:15:56 76° SW 21:23:03 16° SE
Terra 2.7 21:12:24 10° S 21:16:56 48° W 21:21:30 10° NNW
NOSS 3-4 (A) 4.1 21:14:31 10° WSW 21:19:52 55° NNW 21:25:57 10° NE
NOSS 3-4 (C) 4.0 21:15:01 10° WSW 21:20:24 56° NNW 21:26:32 10° NE
Cosmos 1862 3.9 21:17:55 10° N 21:21:16 35° ENE 21:22:56 22° ESE
Cosmos 1346 Rocket 4.3 21:21:54 10° NNW 21:25:07 31° W 21:28:19 10° SSW
Cosmos 2123 Rocket 4.1 21:19:00 10° NNW 21:25:19 80° W 21:31:37 10° S
Cosmos 2058 3.5 21:21:56 10° N 21:25:38 38° ENE 21:27:31 23° SE
Cosmos 407 Rocket 4.1 21:20:46 10° NNW 21:25:41 44° NE 21:28:58 19° ESE
Cosmos 1602 4.3 21:25:45 10° NNW 21:27:44 27° W 21:29:26 12° SSW
Cosmos 2237 Rocket 3.6 21:23:11 10° WSW 21:28:34 42° NW 21:34:00 10° NNE
Cosmos 1174 3.1 21:25:40 10° NW 21:28:59 87° SW 21:30:21 30° SE
Cosmos 1300 Rocket 3.5 21:25:03 11° S 21:29:06 66° E 21:33:23 10° NNE
Cosmos 371 Rocket 4.1 21:25:49 10° NNW 21:30:22 39° NE 21:33:16 20° ESE
Cosmos 2150 Rocket 3.9 21:26:46 10° SSW 21:31:56 83° ESE 21:37:12 10° NNE
SL-4 R/B 3.9 21:30:34 10° SSW 21:31:14 13° S 21:31:14 13° S
ARIANE 6 FM1 Upper Stage 4.5 21:32:35 10° NW 21:36:01 26° NNE 21:39:24 10° ENE
COSMOS 2455 3.0 21:31:12 10° NW 21:37:15 70° NE 21:41:17 22° SE
SJ 16-02 2.5 21:34:38 10° N 21:38:25 29° NE 21:40:32 19° E
Cosmos 1869 3.1 21:39:45 12° SSW 21:43:04 77° WNW 21:46:40 10° N
ASTEX 1 4.0 21:39:30 10° S 21:44:20 56° W 21:49:13 10° NNW
USA 186 2.9 21:44:20 17° SW 21:45:26 25° W 21:47:30 10° NW
Cosmos 1315 Rocket 2.7 21:43:34 25° S 21:45:32 59° E 21:49:14 10° NNE
Cosmos 2297 4.4 21:42:50 10° NW 21:48:22 49° WSW 21:52:39 17° S
Gbstr 26 Del rocket 4.2 21:45:15 10° SSW 21:48:40 25° SSE 21:48:40 25° SSE
Cosmos 1535 Rocket 4.4 21:45:14 14° S 21:50:32 70° E 21:56:41 10° NNE
SL-08 R/B 4.1 21:46:25 10° N 21:51:14 57° WNW 21:56:01 10° SW
Lacrosse 5 rocket 0.8 21:48:28 10° WNW 21:51:39 70° NNE 21:52:48 36° E
SPOT 3 Rocket 3.6 21:48:49 21° SSE 21:52:24 82° WSW 21:57:36 10° NNW
Cosmos 2369 Rocket 3.1 21:47:18 10° NW 21:52:31 41° WSW 21:56:46 15° S
Cosmos 1605 Rocket 3.9 21:47:33 16° S 21:52:31 68° E 21:58:39 10° NNE
YAOGAN 11 4.4 21:50:50 10° N 21:55:04 66° WNW 21:59:22 10° SSW
Cosmos 405 Rocket 3.1 21:52:27 10° NNW 21:55:15 39° W 21:56:32 24° SSW
SeaSat 1 3.8 21:56:42 16° E 21:59:52 30° NE 22:04:08 10° NNW
Cosmos 1697 Rocket 4.3 21:56:23 10° NNW 22:01:06 26° NE 22:05:24 11° E
CZ-4B R/B 3.1 22:02:17 28° SSW 22:03:49 50° W 22:07:07 10° NNW
USA 234 3.2 21:57:34 10° ENE 22:04:08 70° SSE 22:10:40 10° SW
Cosmos 921 Rocket 3.1 22:00:19 10° NNW 22:04:45 76° WSW 22:06:41 32° S
Cosmos 2285 Rocket 4.4 22:01:22 10° SW 22:07:41 68° WNW 22:14:01 10° NNE
Cosmos 1603 4.3 22:08:00 30° SE 22:09:41 36° ESE 22:14:51 10° NE
Helios 1B rocket 3.4 22:09:10 24° E 22:09:47 25° ENE 22:12:43 10° N
Cosmos 1975 Rocket 3.5 22:06:12 10° NNW 22:10:35 60° W 22:12:59 25° SSW
Cosmos 1943 3.1 22:05:40 10° SSW 22:11:19 71° ESE 22:16:59 10° NE
Meteor 2-3 Rocket 4.3 22:06:14 10° N 22:11:38 45° ENE 22:14:03 29° ESE
SL-8 R/B 3.9 22:08:02 10° WSW 22:12:33 46° S 22:13:50 37° SE
Cosmos 1356 Rocket 3.2 22:11:57 31° S 22:13:48 86° ESE 22:17:49 10° NNE
NOSS 3-1 (A) 4.0 22:08:54 10° NW 22:15:44 72° SW 22:20:42 27° SSE
IRS-1C Rocket 4.3 22:12:44 25° S 22:15:52 66° WSW 22:21:09 10° NNW
CZ-2C R/B 2.6 22:16:25 43° SW 22:16:50 47° W 22:19:37 10° NNW
Cosmos 2151 Rocket 4.3 22:17:04 33° ESE 22:17:39 34° E 22:21:38 10° NNE
Okean 1 Rocket 4.3 22:17:47 25° E 22:18:01 25° E 22:21:33 10° NNE
Cosmos 1980 Rocket 4.2 22:17:05 10° NNW 22:21:27 22° NNE 22:25:47 10° E
Helios 1A 3.9 22:18:42 10° NE 22:22:03 29° E 22:22:03 29° E
Cosmos 304 Rocket 3.7 22:18:57 10° NNW 22:23:44 82° WSW 22:25:28 39° SSE
Okean 2 Rocket 3.9 22:24:29 31° E 22:24:53 32° E 22:28:52 10° NNE
Cosmos 1190 Rocket 4.3 22:20:06 10° NNW 22:25:22 59° ENE 22:27:28 34° ESE
Cosmos 2100 Rocket 4.3 22:26:44 33° SE 22:29:10 50° E 22:35:08 10° NNE
Cosmos 44 4.5 22:26:48 10° WSW 22:31:50 49° NW 22:37:06 10° NE
Okean O Rocket 3.9 22:31:03 10° SW 22:34:01 18° W 22:37:00 10° NW
CZ-4B R/B 4.4 22:35:15 21° SSW 22:37:50 37° W 22:42:15 10° NNW
Cosmos 2360 4.3 22:34:05 10° NNW 22:39:49 72° NE 22:42:06 37° SE
Ariane Rocket 3.8 22:37:17 24° SSW 22:39:56 43° W 22:44:46 10° NNW
Cosmos 1656 3.6 22:36:52 10° NNW 22:42:21 81° ENE 22:44:20 41° SE
SL-16 R/B 3.6 22:39:27 10° WSW 22:44:45 39° NW 22:50:04 10° NNE
Cosmos 332 Rocket 4.3 22:44:02 10° NNW 22:48:45 50° ENE 22:50:07 38° ESE
ATLAS 3B R/B 3.6 22:41:14 10° NW 22:48:57 52° NNE 22:55:41 13° E
ATLAS 5 CENTAUR R/B 1.6 22:45:25 10° NW 22:49:24 65° SW 22:50:11 54° S
Cosmos 1420 Rocket 4.1 22:54:22 47° SSE 22:55:26 56° ESE 23:00:37 10° NNE
Cosmos 1954 Rocket 3.9 22:50:31 10° NNW 22:55:47 82° ENE 22:57:15 48° SE
Cosmos 676 Rocket 4.1 22:54:07 10° NNW 22:59:25 69° ENE 23:00:56 45° SE
Cosmos 1833 Rocket 3.9 23:01:17 24° E 23:01:17 24° E 23:05:23 10° NE
BREEZE-M R/B 4.5 22:51:31 10° WSW 23:02:12 65° SSE 23:07:52 10° E
Cosmos 1818 3.6 22:56:58 10° NW 23:02:26 72° SW 23:03:51 49° SSE
Sich 1 Rocket 3.6 23:03:46 57° ESE 23:04:01 58° E 23:08:19 10° NNE
ALOS 2 3.5 23:03:31 34° E 23:04:18 37° ENE 23:08:21 10° N
Cosmos 407 Rocket 4.5 23:02:51 10° NW 23:07:30 36° WSW 23:09:04 29° SW
Spot 4 4.2 23:08:14 43° ESE 23:09:13 51° ENE 23:13:50 10° N
Cosmos 371 Rocket 4.2 23:06:07 10° NW 23:10:35 38° WSW 23:11:43 33° SW
ARIANE 5 R/B 3.0 23:10:04 47° E 23:10:39 50° ENE 23:14:54 10° N
Cosmos 1725 Rocket 4.1 23:08:51 42° SSE 23:10:52 63° E 23:17:06 10° NNE
Cosmos 1459 Rocket 3.9 23:11:18 39° S 23:13:54 88° E 23:20:14 10° N
DEBRIS 4.0 23:14:40 47° SSE 23:15:10 48° SSE 23:26:54 10° E
USA 229 DEB 4.1 23:08:12 10° NW 23:15:25 70° NE 23:20:33 24° ESE
USA 229 4.1 23:08:15 10° NW 23:15:28 70° NE 23:20:40 24° ESE
ARIANE 6 FM1 Upper Stage 2.7 23:11:38 10° NW 23:15:37 63° NE 23:16:01 59° ENE
SJ 16-02 2.0 23:12:36 10° NW 23:16:38 41° WSW 23:17:01 40° WSW
Cosmos 2228 4.1 23:18:31 30° ENE 23:18:31 30° ENE 23:21:45 10° NNE
Cosmos 2233 Rocket 4.3 23:18:32 42° SE 23:20:11 53° E 23:26:14 10° NNE
Cosmos 2056 Rocket 3.7 23:20:45 51° SE 23:21:22 54° ESE 23:26:38 10° NNE
Cosmos 1536 Rocket 4.3 23:17:43 10° NNW 23:21:48 42° W 23:22:30 39° WSW
Meteor 2-1 Rocket 4.2 23:19:54 45° S 23:21:49 88° ESE 23:27:36 10° NNE
Cosmos 2251 Rocket 3.9 23:17:27 10° NNW 23:22:39 54° WSW 23:23:50 44° SSW
COSMOS 2455 3.9 23:17:35 10° NW 23:22:47 31° WSW 23:24:25 27° SW
Cosmos 1743 3.5 23:20:34 10° N 23:22:34 36° NNE 23:22:34 36° NNE
ATLAS 2AS CENTAUR R/B 3.2 23:25:29 37° SE 23:25:59 37° ESE 23:32:09 10° NE
Cosmos 1802 Rocket 3.9 23:25:39 44° S 23:27:50 85° E 23:34:06 10° NNE
Lacrosse 5 rocket 3.2 23:25:19 10° W 23:26:03 15° W 23:26:03 15° W
Cosmos 292 Rocket 3.9 23:24:06 10° NNW 23:28:54 62° ENE 23:29:43 53° ESE
Cosmos 1624 Rocket 4.0 23:28:33 56° SE 23:28:59 58° ESE 23:34:05 10° NNE
CZ-2C R/B 3.9 23:29:08 24° E 23:31:16 32° ENE 23:36:00 10° N
SAR-Lupe-2 4.2 23:33:59 47° NNE 23:33:59 47° NNE 23:36:36 10° N
Cosmos 1626 Rocket 4.3 23:31:39 10° N 23:35:41 38° ENE 23:35:57 38° E
SeaSat 1 2.4 23:36:18 61° SSW 23:36:57 69° WSW 23:41:52 10° NW
Cosmos 2016 Rocket 4.0 23:39:48 46° S 23:41:54 90° NNW 23:48:16 10° N
ACS3 Solar Sail 4.0 23:41:16 10° ENE 23:42:23 10° ENE 23:43:30 10° E
Helios 1B rocket 3.4 23:43:10 31° W 23:43:10 31° W 23:45:54 10° NNW
Cosmos 1782 3.6 23:45:06 39° NE 23:45:06 39° NE 23:47:36 10° NNE
Cosmos 1697 Rocket 2.6 23:40:09 10° NNW 23:45:50 88° ENE 23:47:06 56° SE
Cosmos 1892 Rocket 3.6 23:41:29 10° NNW 23:45:51 65° W 23:46:01 64° WSW
USA 234 3.5 23:40:42 10° ENE 23:47:13 71° NNW 23:53:44 10° W
Cosmos 2151 3.8 23:48:38 10° N 23:52:34 39° ENE 23:52:40 39° ENE
Cosmos 1603 4.4 23:49:46 20° WSW 23:53:38 53° NW 23:59:14 10° NNE
Okean 1 Rocket 3.8 23:54:48 40° W 23:55:32 44° WNW 23:59:44 10° N
